Tracking 32577 objects as of 15-Dec-2025
HD Live streaming from Space Station
objects crossing your sky now

SITRO-AIS-11

Track SITRO-AIS-11 now!
10-day predictions
SITRO-AIS-11 is classified as:


NORAD ID: 57208
Int'l Code: 2023-091AU
Perigee: 474.0 km
Apogee: 484.9 km
Inclination: 97.5 °
Period: 94.0 minutes
Semi major axis: 6850 km
RCS: Unknown
Launch date: June 27, 2023
Source: (TBD)
Launch site: VOSTOCHNY COSMODROME (VOSTO)

Uplink (MHz):
Downlink (MHz): 437.050
Beacon (MHz):
Mode: 1145baudAFSK
Call sign: RS41S
Status: Unknown


Uplink (MHz):
Downlink (MHz): 401.320
Beacon (MHz):
Mode: 2k4 GMSK_USP
Call sign: SC2213
Status: Active


Uplink (MHz):
Downlink (MHz): 436.260
Beacon (MHz):
Mode: LoRa
Call sign: RS52SD
Status: Unknown

Your satellite tracking list
Your tracking list is empty




NASA's NSSDC Master Catalog

Two Line Element Set (TLE):
1 57208U 23091AU  25348.35473709  .00018680  00000-0  62159-3 0  9996
2 57208  97.5365  50.6400 0007984  14.6698 345.4773 15.31171376136431
Source of the keplerian elements: AFSPC